Location: Unnamed
(49.5054°N, 18.9950°E)
Time: 12:29:43
(UTC+02:00)

ISS - Visible Passes

Search period start: 20 April 2024 00:00
Search period end: 30 April 2024 00:00
Orbit: 412 x 418 km, 51.6° (Epoch: 20 April)

Date Brightness Start Highest point End Pass type
(mag) Time Alt. Az. Time Alt. Az. Time Alt. Az.
21 Apr -1.1 04:47:41 10° SSE 04:49:03 12° SE 04:50:26 10° ESE visible
23 Apr -2.1 04:44:45 10° SSW 04:47:33 25° SE 04:50:22 10° E visible
24 Apr -1.6 03:57:12 13° S 03:58:44 17° SE 04:00:59 10° E visible
25 Apr -1.1 03:10:01 11° SE 03:10:01 11° SE 03:10:52 10° ESE visible
25 Apr -3.3 04:42:52 11° SW 04:46:00 51° SSE 04:49:15 10° ENE visible
26 Apr -2.7 03:55:35 23° SSW 03:57:00 34° SSE 04:00:04 10° E visible
27 Apr -2.1 03:08:12 23° SE 03:08:12 23° SE 03:10:43 10° E visible
27 Apr -3.8 04:41:03 10° WSW 04:44:24 90° SSE 04:47:45 10° ENE visible
28 Apr -1.0 02:20:44 11° ESE 02:20:44 11° ESE 02:21:03 10° E visible
28 Apr -3.7 03:53:34 27° SW 03:55:13 67° SSE 03:58:33 10° ENE visible
29 Apr -3.4 03:06:02 46° SSE 03:06:02 46° SSE 03:09:15 10° ENE visible
29 Apr -3.4 04:39:22 10° W 04:42:41 64° N 04:46:01 10° ENE visible
